Weather History for Tallahassee, FL

Change the Weather History Date:

Monday, January 21, 2013

  Actual Average Record
Temperature  
Mean Temperature 54 °F 51 °F  
Max Temperature 69 °F 64 °F 80 °F (1929)
Min Temperature 39 °F 39 °F 6 °F (1985)
Degree Days  
Heating Degree Days 11    
Month to date heating degree days 121  
Since 1 July heating degree days 646  
Cooling Degree Days 0    
Month to date cooling degree days 30  
Year to date cooling degree days 30  
Growing Degree Days 4 (Base 50)    
Moisture  
Dew Point 37 °F    
Average Humidity 58    
Maximum Humidity 89    
Minimum Humidity 27    
Precipitation  
Precipitation 0.00 in 0.16 in 4.66 in (2010)
Month to date precipitation 0.43 2.81  
Year to date precipitation 0.43 2.81  
Sea Level Pressure  
Sea Level Pressure 30.12 in    
Wind  
Wind Speed 3 mph (NW)    
Max Wind Speed 10 mph    
Max Gust Speed 14 mph    
Visibility 10 miles    
Events      
T = Trace of Precipitation, MM = Missing Value Source: NWS Daily Summary

Daily Weather History Graph

Daily Weather History Graph

Search for Another Location

Airport:

Trip Planner

Search our weather history database for the weather conditions in past years. The results will help you decide how hot, cold, wet, or windy it might be!

Date:

Astronomy

Jan. 21, 2013 Rise Set
Actual Time 7:33 AM EST 6:04 PM EST
Civil Twilight 7:07 AM EST 6:30 PM EST
Nautical Twilight 6:38 AM EST 6:59 PM EST
Astronomical Twilight 6:09 AM EST 7:28 PM EST
Moon 1:45 PM EST (1/21) 3:00 AM EST (1/21)
Length of Visible Light 11h 22m
Length of Day
10h 31m
Waxing Gibbous, 75% of the Moon is Illuminated
Jan 21
Waxing Gibbous
Jan 26
Full
Feb 3
Last Quarter
Feb 10
New
Feb 17
First Quarter

Hourly Weather History & Observations

Time (EST) Temp. Dew Point Humidity Pressure Visibility Wind Dir Wind Speed Gust Speed Precip Events Conditions
12:53 AM 43.0 °F 39.0 °F 86% 30.13 in 10.0 mi Calm Calm - N/A   Clear
1:53 AM 45.0 °F 39.0 °F 80% 30.12 in 10.0 mi Calm Calm - N/A   Clear
2:53 AM 44.1 °F 39.9 °F 85% 30.10 in 10.0 mi Calm Calm - N/A   Clear
3:53 AM 42.1 °F 37.9 °F 85% 30.09 in 10.0 mi Calm Calm - N/A   Clear
4:53 AM 41.0 °F 37.9 °F 89% 30.10 in 10.0 mi Calm Calm - N/A   Clear
5:53 AM 41.0 °F 37.0 °F 86% 30.10 in 10.0 mi Calm Calm - N/A   Clear
6:53 AM 39.0 °F 36.0 °F 89% 30.12 in 10.0 mi Calm Calm - N/A   Clear
7:53 AM 39.0 °F 36.0 °F 89% 30.14 in 10.0 mi Calm Calm - N/A   Partly Cloudy
8:53 AM 48.0 °F 41.0 °F 77% 30.15 in 10.0 mi Calm Calm - N/A   Mostly Cloudy
9:53 AM 54.0 °F 41.0 °F 62% 30.18 in 10.0 mi NNW 3.5 mph - N/A   Partly Cloudy
10:53 AM 63.0 °F 37.0 °F 38% 30.19 in 10.0 mi North 5.8 mph - N/A   Clear
11:53 AM 64.9 °F 35.1 °F 33% 30.16 in 10.0 mi North 10.4 mph - N/A   Clear
12:53 PM 64.9 °F 36.0 °F 34% 30.12 in 10.0 mi Calm Calm - N/A   Clear
1:53 PM 68.0 °F 34.0 °F 28% 30.09 in 10.0 mi NNW 9.2 mph - N/A   Clear
2:53 PM 68.0 °F 34.0 °F 28% 30.08 in 10.0 mi WNW 6.9 mph - N/A   Clear
3:53 PM 66.9 °F 32.0 °F 27% 30.07 in 10.0 mi WNW 6.9 mph - N/A   Clear
4:53 PM 66.0 °F 33.1 °F 29% 30.08 in 10.0 mi WNW 8.1 mph - N/A   Clear
5:53 PM 63.0 °F 35.1 °F 35% 30.09 in 10.0 mi NW 4.6 mph - N/A   Clear
6:53 PM 54.0 °F 37.9 °F 55% 30.11 in 10.0 mi Calm Calm - N/A   Clear
7:53 PM 52.0 °F 37.9 °F 59% 30.12 in 10.0 mi Calm Calm - N/A   Clear
8:53 PM 46.9 °F 37.9 °F 71% 30.13 in 10.0 mi Calm Calm - N/A   Clear
9:53 PM 46.0 °F 37.9 °F 73% 30.14 in 10.0 mi Calm Calm - N/A   Clear
10:53 PM 51.1 °F 39.0 °F 63% 30.16 in 10.0 mi NNW 5.8 mph - N/A   Clear
11:53 PM 53.1 °F 39.0 °F 59% 30.15 in 10.0 mi North 4.6 mph - N/A   Clear